Location: Unspecified
(48.7170°N, 0.0000°E)
Time: 21:04:49
(UTC+00:00)

ISS - Pass Details

Date: 30 May 2019
Orbit: 408 x 419 km, 51.6° (Epoch: 21 June)

Event Time Altitude Azimuth Distance (km) Brightness Sun altitude
Rises 20:25:56 0° 288° (WNW) 2,354 1.5 -5.2°
Reaches altitude 10° 20:28:02 10° 291° (WNW) 1,492 0.4 -5.4°
Maximum altitude 20:31:22 67° 15° (NNE) 457 -3.4 -5.8°
Drops below altitude 10° 20:34:43 10° 99° (E) 1,496 -1.4 -6.2°
Enters shadow 20:35:46 - 101° (E) 1,923 -0.9 -6.3°
